Tracking 20239 objects as of 23-Jan-2020
HD Live streaming from Space Station
objects crossing your sky now

SL-3 R/B

Track SL-3 R/B now!
10-day predictions
SL-3 R/B is classified as:


NORAD ID: 4814
Int'l Code: 1970-113B
Perigee: 450.2 km
Apogee: 485.5 km
Inclination: 81.1 °
Period: 93.8 minutes
Semi major axis: 6838 km
RCS: 6.542 m2 (large)
Launch date: December 18, 1970
Source: Commonwealth of Independent States (former USSR) (CIS)
Launch site: PLESETSK MISSILE AND SPACE COMPLEX (PKMTR)

Note: This is a ROCKET BODY
aabbcc
Your satellite tracking list
Your tracking list is empty




NASA's NSSDC Master Catalog

Two Line Element Set (TLE):
1  4814U 70113B   20022.54174144 +.00000956 +00000-0 +26871-4 0  9993
2  4814 081.1437 332.9686 0025807 058.0039 302.3703 15.35073399680598
Source of the keplerian elements: AFSPC